Regional Weather Roundup
Issued by NWS Midland/Odessa, TX

Skip options and go directly to product.
Home | Oldest Version | Previous Version | Current Version | All | Graphics & Text | Save Text | Print | Product List | Glossary On

Skip product version selection by date and time.   
455
ASUS44 KMAF 291610
RWRMAF
MIDLAND AREA WEATHER ROUNDUP
NATIONAL WEATHER SERVICE MIDLAND TX
1000 AM CST THU JAN 29 2015

...IN SOUTHWEST TEXAS AND SOUTHEAST NEW MEXICO...

CITY           SKY/WX    TMP DP  RH WIND       PRES   REMARKS
ALPINE         SUNNY     60  45  57 N6        30.37R
ANDREWS        FAIR      51  33  50 NE16G26   30.35R
ARTESIA        PTSUNNY   50  37  62 N17       30.45R
BIG SPRING     MOSUNNY   58  34  40 NE31G38   30.33R
CARLSBAD       PTSUNNY   52  36  54 N17       30.40R
DRYDEN           N/A     61  43  51 NE7       30.21R
FORT STOCKTON  SUNNY     54  42  64 NW16      30.30R
GUAD PASS      MOSUNNY   55  33  43 E26       30.33R
HOBBS          SUNNY     48  36  61 N18G25    30.38R
MARFA          SUNNY     59  39  47 NE16      30.32R
MIDLAND AIRPK  MOSUNNY   56  34  43 NE23G29   30.33R
MIDLAND INTL   PTSUNNY   55  35  47 NE28G35   30.32R
ODESSA         MOSUNNY   54  35  48 NE24G33   30.32R
PECOS          SUNNY     54  39  57 N12       30.32R
PRESIDIO       FAIR      59  48  65 CALM      30.24R
SEMINOLE       PTSUNNY   50  35  55 NE16      30.37R
SNYDER         MOSUNNY  N/A N/A N/A NE22G30   30.34R
WINK           MOSUNNY   57  32  38 NE18G29   30.30R
$$
...OTHER STATIONS IN TEXAS...

CITY           SKY/WX    TMP DP  RH WIND       PRES   REMARKS
ABILENE        MOSUNNY   54  37  52 N14       30.33R
AMARILLO       CLOUDY    44  30  57 N22G30    30.46R WCI  35
AUSTIN         CLOUDY    62  58  86 W8        30.28R
BROWNSVILLE    SUNNY     72  63  73 SE14      30.22R
CORPUS CHRISTI MOSUNNY   68  61  78 S14       30.22R
DALLAS FTW     MOSUNNY   63  36  36 N17       30.26R
DEL RIO        MOSUNNY   60  49  66 E5        30.21R
EL PASO        CLOUDY    52  37  56 N10       30.28R
HOUSTON INT    CLOUDY    63  63 100 CALM      30.26R FOG
LUBBOCK        CLOUDY    47  34  60 NE16      30.39R
SAN ANGELO     PTSUNNY   58  39  49 NE13      30.29R
SAN ANTONIO    PTSUNNY   62  55  77 SW8       30.25R
WACO           SUNNY     63  45  51 NW12      30.24R
WICHITA FALLS  NOT AVBL
$$
...OTHER LOCATIONS IN NEW MEXICO...

CITY           SKY/WX    TMP DP  RH WIND       PRES   REMARKS
ALAMAGORDO     PTSUNNY   46  36  66 SW3       30.30R
ALBUQUERQUE    CLOUDY    48  29  47 E26G37    30.38R WCI  40
CANNON AFB     CLOUDY    45  29  53 NE25G32   30.43R WCI  36
CLOVIS         PTSUNNY   45  30  57 NE22G29   30.44R WCI  36
HOLLOMAN AFB   PTSUNNY   44  38  77 NE2       30.29R
ROSWELL        PTSUNNY   49  33  54 N13       30.45R
RUIDOSO        CLOUDY    37  27  65 SE17G23   30.49R WCI  28
SANTA FE       CLOUDY    42  27  55 S16       30.41R WCI  34
TRUTH OR CONSE CLOUDY    51  30  44 N18G28    30.31R
TUCUMCARI      CLOUDY    47  27  45 NE16      30.47R
$$

USA.gov is the U.S. government's official web portal to all federal, state and local government web resources and services.